Date,TemperatureHighF,TemperatureAvgF,TemperatureLowF,DewpointHighF,DewpointAvgF,DewpointLowF,HumidityHigh,HumidityAvg,HumidityLow,PressureMaxIn,PressureMinIn,WindSpeedMaxMPH,WindSpeedAvgMPH,GustSpeedMaxMPH,PrecipitationSumIn
2013-4-1,61.5,46.2,36.3,45.3,38.8,17.6,95,77,46,29.75,29.52,8,2,17,0.22
2013-4-2,40.6,34.0,26.7,21.8,16.8,12.8,68,50,37,29.97,29.85,10,4,26,0.00
2013-4-3,45.5,35.0,27.5,20.1,15.9,12.6,67,47,30,30.19,29.96,7,4,16,0.00
2013-4-4,55.6,40.4,26.8,26.7,19.2,14.4,68,45,25,30.32,30.06,7,2,14,0.00
2013-4-5,62.8,44.6,35.1,30.6,27.6,24.2,78,55,24,30.06,29.66,5,3,12,0.00
2013-4-6,48.1,37.7,29.4,26.5,14.4,7.7,67,41,20,30.35,29.90,6,2,17,0.00
2013-4-7,55.0,41.4,27.8,40.0,27.3,12.5,83,58,31,30.34,30.02,11,4,21,0.00
2013-4-8,67.0,53.0,41.6,42.8,40.5,36.8,94,66,33,30.09,29.97,4,1,10,0.00
2013-4-9,71.8,57.0,45.3,56.2,45.4,40.3,96,68,42,30.07,29.87,6,2,12,0.07
2013-4-10,66.7,53.3,45.4,54.1,46.9,43.2,94,80,57,30.00,29.85,3,0,7,0.25
2013-4-11,57.2,49.4,45.0,46.4,40.3,29.3,95,74,41,30.08,29.83,2,1,12,0.06
2013-4-12,39.6,36.9,35.7,35.9,34.6,33.4,95,91,81,30.16,29.81,4,1,16,0.55
2013-4-13,52.9,43.4,33.9,40.9,36.1,32.6,96,77,53,29.96,29.77,4,1,10,0.11
2013-4-14,52.1,43.4,34.1,39.3,32.6,26.3,90,67,44,30.24,29.93,5,1,13,0.00
2013-4-15,60.5,45.0,30.7,38.2,32.3,25.5,89,64,41,30.40,30.23,3,1,7,0.00
2013-4-16,65.2,51.2,37.7,51.1,42.5,33.8,90,73,50,30.40,30.07,10,4,21,0.01
2013-4-17,68.3,57.8,47.8,52.3,40.2,31.9,93,56,28,30.32,30.07,7,2,15,0.01
2013-4-18,63.6,54.6,37.6,44.7,35.9,30.6,80,52,36,30.42,30.14,8,3,15,0.00
2013-4-19,73.6,61.2,51.0,62.5,57.1,45.0,96,87,64,30.14,29.65,10,5,21,0.00
2013-4-20,64.0,52.4,41.0,61.9,41.3,25.0,95,69,38,30.23,29.61,9,3,19,0.47
2013-4-21,55.8,43.1,31.3,30.0,24.4,20.9,72,50,28,30.68,30.24,6,1,14,0.00
2013-4-22,56.0,41.4,31.6,35.4,30.5,26.5,86,67,36,30.75,30.59,4,1,10,0.00
2013-4-23,40.5,38.6,36.5,39.2,35.6,30.6,96,89,76,30.60,30.13,3,1,8,0.01
2013-4-24,75.5,54.8,39.3,54.3,44.2,38.0,97,73,27,30.13,29.81,7,3,14,0.01
2013-4-25,65.2,54.2,43.3,51.3,37.7,25.1,93,58,26,30.28,29.83,9,2,16,0.02
2013-4-26,66.3,50.6,38.0,43.2,34.9,28.2,74,56,38,30.43,30.28,3,1,16,0.00
2013-4-27,66.8,50.7,34.8,42.0,36.3,31.3,92,62,32,30.43,30.29,4,1,7,0.00
2013-4-28,74.0,48.7,37.2,43.0,24.0,-99.9,92,51,30,30.34,30.21,5,1,10,0.05
2013-4-29,69.0,56.8,46.9,48.1,38.4,25.4,85,54,30,30.27,30.19,9,2,15,0.00
2013-4-30,71.5,56.4,44.6,37.6,32.0,21.4,76,43,20,30.36,30.25,3,0,7,0.00